Simultaneous Nadir Overpasses (SNOs) Predictions

Prediction of SNOs between AQUA and METOP-B Satellite Orbit:

Table of predicted SNOs for the next 14.0 days since TLE Epoch: 9/21/2019
Index Date (AQUA) Time (AQUA) Lat,Lon (AQUA) SZA (AQUA ) Date (METOP-B) Time (METOP-B) Lat,Lon (METOP-B) SZA (METOP-B ) Distance(km) Time Diff (sec)
1 09/23/2019 14:22:33 73.23, -40.21 73.27 09/23/2019 14:21:27 73.14, -42.85 73.25 85.60 66
2 09/23/2019 15:12:10 -73.84, 126.14 106.09 09/23/2019 15:11:55 -73.85, 126.09 106.07 2.18 15
3 09/23/2019 16:01:39 73.90, -66.37 73.99 09/23/2019 16:02:33 73.92, -66.41 74.01 2.42 54
4 09/26/2019 09:56:53 73.44, 25.79 74.57 09/26/2019 09:55:44 73.38, 24.07 74.55 55.21 69
5 09/26/2019 10:46:27 -73.88,-167.52 104.96 09/26/2019 10:46:16 -73.89,-167.42 104.95 3.35 11
6 09/26/2019 11:35:55 73.90, 0.07 75.08 09/26/2019 11:36:55 73.90, -0.04 75.08 3.49 60
7 09/29/2019 05:31:13 73.65, 91.77 75.89 09/29/2019 05:30:01 73.61, 91.00 75.86 24.64 72
8 09/29/2019 06:20:43 -73.88,-101.08 103.87 09/29/2019 06:20:38 -73.87,-101.05 103.87 1.15 5
9 09/29/2019 07:10:12 73.96, 66.38 76.23 09/29/2019 07:11:16 73.93, 66.44 76.20 3.39 64
10 10/02/2019 01:05:32 73.82, 157.84 77.15 10/02/2019 01:04:19 73.78, 157.83 77.12 3.70 73
11 10/02/2019 01:54:59 -73.88, -34.65 102.78 10/02/2019 01:55:00 -73.85, -34.68 102.80 2.91 1
12 10/02/2019 02:44:27 73.92, 132.90 77.28 10/02/2019 02:45:38 73.91, 132.80 77.27 3.27 71
13 10/04/2019 20:39:47 73.84,-135.76 78.25 10/04/2019 20:38:39 73.81,-135.69 78.24 3.27 68
14 10/04/2019 21:29:14 -73.89, 31.76 101.68 10/04/2019 21:29:20 -73.88, 31.80 101.69 1.33 6




NCC Satellite Simultaneous Nadir Overpasses (SNOs) Prediction Service
